Location: *
(49.8044°N, 4.0558°E)
Time: 21:59:08
(UTC+00:00)

SL-16 R/B - Pass Details

Date: 09 April 2020
Orbit: 842 x 846 km, 71.0° (Epoch: 25 May)

Event Time Altitude Azimuth Distance (km) Brightness Sun altitude
Rises 23:12:01 0° 328° (NNW) 3,416 6.3 -31.7°
Reaches altitude 10° 23:14:30 10° 325° (NW) 2,477 5.3 -31.8°
Enters shadow 23:18:36 45° 301° (WNW) 1,139 3.0 -31.9°
